Weather History for Orange City, IA

Change the Weather History Date:

Sunday, February 9, 2014

  Actual Average Record
Temperature  
Mean Temperature 0 °F -  
Max Temperature 8 °F 32 °F 53 °F (1999)
Min Temperature -9 °F 15 °F -17 °F (1951)
Degree Days  
Heating Degree Days 66    
Moisture  
Dew Point -7 °F    
Average Humidity 72    
Maximum Humidity 85    
Minimum Humidity 56    
Precipitation  
Precipitation 0.00 in - - ()
Sea Level Pressure  
Sea Level Pressure 30.31 in    
Wind  
Wind Speed 7 mph (NNW)    
Max Wind Speed 13 mph    
Max Gust Speed 18 mph    
Visibility 10 miles    
Events Snow    
Averages and records for this station are not official NWS values.
T = Trace of Precipitation, MM = Missing Value Source: NWS Daily Summary

Daily Weather History Graph

Daily Weather History Graph

Search for Another Location

Airport:

Trip Planner

Search our weather history database for the weather conditions in past years. The results will help you decide how hot, cold, wet, or windy it might be!

Date:

Astronomy

Feb. 09, 2014 Rise Set
Actual Time 7:29 AM CST 5:47 PM CST
Civil Twilight 7:00 AM CST 6:17 PM CST
Nautical Twilight 6:26 AM CST 6:50 PM CST
Astronomical Twilight 5:53 AM CST 7:23 PM CST
Moon 1:25 PM CST (2/9) 3:38 AM CST (2/9)
Length of Visible Light 11h 16m
Length of Day
10h 17m
Waxing Gibbous, 77% of the Moon is Illuminated
Feb 9
Waxing Gibbous
Feb 14
Full
Feb 22
Last Quarter
Mar 1
New
Mar 8
First Quarter

Hourly Weather History & Observations

Time (CST) Temp. Windchill Dew Point Humidity Pressure Visibility Wind Dir Wind Speed Gust Speed Precip Events Conditions
12:15 AM 5.0 °F - 1.4 °F 85% 30.20 in 10.0 mi Calm Calm - N/A   Mostly Cloudy
12:35 AM 6.8 °F -2.0 °F 1.4 °F 79% 30.20 in 10.0 mi WNW 4.6 mph - N/A   Overcast
12:55 AM 8.6 °F -2.6 °F 3.2 °F 79% 30.20 in 10.0 mi NNW 6.9 mph - N/A Snow Light Snow
1:15 AM 8.6 °F -1.3 °F 3.2 °F 79% 30.20 in 10.0 mi North 5.8 mph - N/A   Scattered Clouds
1:35 AM 6.8 °F -3.5 °F 1.4 °F 79% 30.21 in 10.0 mi North 5.8 mph - N/A   Mostly Cloudy
1:55 AM 6.8 °F -5.9 °F 1.4 °F 79% 30.21 in 10.0 mi North 8.1 mph - N/A   Overcast
2:15 AM 5.0 °F -8.1 °F -0.4 °F 78% 30.23 in 10.0 mi North 8.1 mph - N/A   Overcast
2:35 AM 3.2 °F -10.3 °F -2.2 °F 78% 30.23 in 10.0 mi North 8.1 mph - N/A   Scattered Clouds
2:55 AM 1.4 °F -15.3 °F -5.8 °F 72% 30.23 in 10.0 mi North 11.5 mph 17.3 mph N/A   Clear
3:15 AM 1.4 °F -16.1 °F -5.8 °F 72% 30.23 in 10.0 mi North 12.7 mph 18.4 mph N/A   Clear
3:35 AM -0.4 °F -15.7 °F -7.6 °F 72% 30.24 in 10.0 mi North 9.2 mph - N/A   Clear
3:55 AM -2.2 °F -18.0 °F -7.6 °F 78% 30.24 in 10.0 mi North 9.2 mph - N/A   Clear
4:15 AM -2.2 °F -18.0 °F -9.4 °F 71% 30.24 in 10.0 mi North 9.2 mph - N/A   Clear
4:35 AM -5.8 °F -21.2 °F -11.2 °F 77% 30.24 in 10.0 mi NNW 8.1 mph - N/A   Clear
4:55 AM -5.8 °F -21.2 °F -11.2 °F 77% 30.24 in 10.0 mi NNW 8.1 mph - N/A   Clear
5:15 AM -5.8 °F -22.4 °F -11.2 °F 77% 30.25 in 10.0 mi NNW 9.2 mph - N/A   Clear
5:35 AM -5.8 °F -22.4 °F -11.2 °F 77% 30.25 in 10.0 mi NNW 9.2 mph - N/A   Clear
5:55 AM -7.6 °F -22.1 °F -14.8 °F 71% 30.26 in 10.0 mi NW 6.9 mph - N/A   Clear
6:15 AM -9.4 °F -25.6 °F -14.8 °F 77% 30.26 in 10.0 mi NNW 8.1 mph - N/A   Clear
6:35 AM -7.6 °F -24.6 °F -14.8 °F 71% 30.25 in 10.0 mi NNW 9.2 mph - N/A   Clear
6:55 AM -7.6 °F -23.4 °F -13.0 °F 77% 30.26 in 10.0 mi NNW 8.1 mph - N/A   Clear
7:15 AM -7.6 °F -23.4 °F -13.0 °F 77% 30.27 in 10.0 mi NW 8.1 mph - N/A   Clear
7:35 AM -7.6 °F -23.4 °F -13.0 °F 77% 30.28 in 10.0 mi NNW 8.1 mph - N/A   Clear
7:55 AM -7.6 °F -23.4 °F -14.8 °F 71% 30.28 in 10.0 mi NW 8.1 mph - N/A   Clear
8:15 AM -7.6 °F -23.4 °F -13.0 °F 77% 30.29 in 10.0 mi NNW 8.1 mph - N/A   Clear
8:35 AM -5.8 °F -21.2 °F -13.0 °F 71% 30.29 in 10.0 mi NNW 8.1 mph - N/A   Scattered Clouds
8:55 AM -5.8 °F -24.4 °F -11.2 °F 77% 30.30 in 10.0 mi North 11.5 mph - N/A   Scattered Clouds
9:15 AM -4.0 °F -20.2 °F -11.2 °F 71% 30.31 in 10.0 mi North 9.2 mph - N/A   Clear
9:35 AM -2.2 °F -19.9 °F -11.2 °F 66% 30.30 in 10.0 mi North 11.5 mph - N/A   Scattered Clouds
9:55 AM -2.2 °F -18.9 °F -11.2 °F 66% 30.30 in 10.0 mi North 10.4 mph - N/A   Mostly Cloudy
10:15 AM -2.2 °F -18.9 °F -11.2 °F 66% 30.32 in 10.0 mi North 10.4 mph 17.3 mph N/A   Overcast
10:35 AM -0.4 °F -14.7 °F -9.4 °F 66% 30.33 in 10.0 mi North 8.1 mph - N/A   Overcast
10:55 AM -0.4 °F -14.7 °F -9.4 °F 66% 30.33 in 10.0 mi NNW 8.1 mph - N/A   Mostly Cloudy
11:15 AM 1.4 °F -11.3 °F -7.6 °F 66% 30.34 in 10.0 mi NNW 6.9 mph - N/A   Scattered Clouds
11:35 AM 1.4 °F -12.5 °F -7.6 °F 66% 30.36 in 10.0 mi NNW 8.1 mph - N/A   Scattered Clouds
11:55 AM 1.4 °F -12.5 °F -7.6 °F 66% 30.35 in 10.0 mi NNW 8.1 mph - N/A   Clear
12:15 PM 3.2 °F -11.3 °F -7.6 °F 61% 30.36 in 10.0 mi NW 9.2 mph - N/A   Clear
12:35 PM 3.2 °F -11.3 °F -5.8 °F 66% 30.36 in 10.0 mi NW 9.2 mph - N/A   Clear
12:55 PM 3.2 °F -13.1 °F -7.6 °F 61% 30.34 in 10.0 mi NW 11.5 mph - N/A   Clear
1:15 PM 5.0 °F -8.1 °F -7.6 °F 56% 30.35 in 10.0 mi NNW 8.1 mph - N/A   Clear
1:35 PM 5.0 °F -10.0 °F -5.8 °F 61% 30.34 in 10.0 mi NNW 10.4 mph - N/A   Clear
1:55 PM 5.0 °F -8.1 °F -5.8 °F 61% 30.32 in 10.0 mi NW 8.1 mph - N/A   Clear
2:15 PM 6.8 °F -8.6 °F -5.8 °F 56% 30.33 in 10.0 mi NW 11.5 mph - N/A   Clear
2:35 PM 6.8 °F -7.8 °F -4.0 °F 61% 30.32 in 10.0 mi NNW 10.4 mph - N/A   Clear
2:55 PM 6.8 °F -9.3 °F -2.2 °F 67% 30.32 in 10.0 mi NW 12.7 mph 17.3 mph N/A   Scattered Clouds
3:15 PM 6.8 °F -9.3 °F -0.4 °F 72% 30.32 in 10.0 mi NW 12.7 mph - N/A   Overcast
3:35 PM 6.8 °F -7.8 °F -2.2 °F 67% 30.31 in 10.0 mi NW 10.4 mph - N/A   Scattered Clouds
3:55 PM 6.8 °F -6.9 °F -0.4 °F 72% 30.31 in 10.0 mi NW 9.2 mph - N/A   Mostly Cloudy
4:15 PM 6.8 °F -5.9 °F -0.4 °F 72% 30.32 in 7.0 mi NNW 8.1 mph - N/A   Overcast
4:35 PM 6.8 °F -5.9 °F -0.4 °F 72% 30.33 in 5.0 mi NNW 8.1 mph - N/A   Haze
4:55 PM 6.8 °F -4.8 °F -2.2 °F 67% 30.34 in 7.0 mi NNW 6.9 mph - N/A   Overcast
5:15 PM 5.0 °F -8.1 °F -2.2 °F 72% 30.34 in 10.0 mi NNW 8.1 mph - N/A   Mostly Cloudy
5:35 PM 5.0 °F -5.6 °F -2.2 °F 72% 30.35 in 10.0 mi NNW 5.8 mph - N/A   Clear
5:55 PM 3.2 °F -7.8 °F -4.0 °F 72% 30.36 in 10.0 mi NNW 5.8 mph - N/A   Clear
6:15 PM 3.2 °F -9.1 °F -4.0 °F 72% 30.36 in 10.0 mi NNW 6.9 mph - N/A   Clear
6:35 PM -0.4 °F - -7.6 °F 72% 30.37 in 10.0 mi Calm Calm - N/A   Clear
6:55 PM -0.4 °F - -7.6 °F 72% 30.37 in 10.0 mi Calm Calm - N/A   Clear
7:15 PM -2.2 °F -12.5 °F -7.6 °F 78% 30.37 in 10.0 mi NW 4.6 mph - N/A   Clear
7:35 PM -0.4 °F -10.4 °F -7.6 °F 72% 30.37 in 10.0 mi NW 4.6 mph - N/A   Clear
7:55 PM -4.0 °F -16.3 °F -9.4 °F 78% 30.37 in 10.0 mi WNW 5.8 mph - N/A   Clear
8:15 PM -5.8 °F -19.9 °F -9.4 °F 84% 30.38 in 10.0 mi NW 6.9 mph - N/A   Clear
8:35 PM -7.6 °F -22.1 °F -11.2 °F 84% 30.39 in 10.0 mi NW 6.9 mph - N/A   Clear
8:55 PM -4.0 °F -19.0 °F -9.4 °F 78% 30.39 in 10.0 mi NNW 8.1 mph - N/A   Clear
9:15 PM -4.0 °F -17.8 °F -11.2 °F 71% 30.40 in 10.0 mi NW 6.9 mph - N/A   Clear
9:35 PM -5.8 °F -18.4 °F -11.2 °F 77% 30.40 in 10.0 mi NW 5.8 mph - N/A   Clear
9:55 PM -2.2 °F -15.6 °F -9.4 °F 71% 30.40 in 10.0 mi NNW 6.9 mph - N/A   Clear
10:15 PM -5.8 °F -16.7 °F -13.0 °F 71% 30.41 in 10.0 mi NW 4.6 mph - N/A   Clear
10:35 PM -5.8 °F -18.4 °F -13.0 °F 71% 30.41 in 10.0 mi NW 5.8 mph - N/A   Clear
10:55 PM -2.2 °F -16.8 °F -9.4 °F 71% 30.40 in 10.0 mi North 8.1 mph - N/A   Clear
11:15 PM -2.2 °F -18.0 °F -11.2 °F 66% 30.40 in 10.0 mi NNW 9.2 mph - N/A   Clear
11:35 PM -5.8 °F -19.9 °F -11.2 °F 77% 30.40 in 10.0 mi NNW 6.9 mph - N/A   Clear
11:55 PM -5.8 °F -21.2 °F -11.2 °F 77% 30.39 in 10.0 mi NNW 8.1 mph - N/A   Clear